,,,PA_Meas_PMT16A,,PR_Meas_QMR101_102,,RH_Meas_QMH101,,SR_Meas_QMS101,,TA_Meas_QMH101,,GenWind,,GenWind,
date,time,status,PA,status,PR,status,RH,status,SR,status,TA,status,DirAvg,status,SpdAvg,
2011-05-25, 00:00:04,VALID,1008.662,VALID,0.0,VALID,104.0,VALID,0.0,VALID,24.357,VALID,97.0,VALID,0.0,
2011-05-25, 00:01:04,VALID,1008.65,VALID,0.0,VALID,104.0,VALID,0.0,VALID,24.335,VALID,97.0,VALID,0.0,
2011-05-25, 00:02:04,VALID,1008.625,VALID,0.0,VALID,104.0,VALID,0.0,VALID,24.337,VALID,97.0,VALID,0.0,
2011-05-25, 00:03:04,VALID,1008.566,VALID,0.0,VALID,104.0,VALID,0.0,VALID,24.337,VALID,97.0,VALID,0.0,
2011-05-25, 00:04:04,VALID,1008.563,VALID,0.0,VALID,104.0,VALID,0.106,VALID,24.316,VALID,97.0,VALID,0.0,
2011-05-25, 00:05:04,VALID,1008.566,VALID,0.0,VALID,104.0,VALID,0.106,VALID,24.296,VALID,97.0,VALID,0.0,
2011-05-25, 00:06:04,VALID,1008.573,VALID,0.0,VALID,104.0,VALID,0.0,VALID,24.318,VALID,97.0,VALID,0.0,
2011-05-25, 00:07:04,VALID,1008.528,VALID,0.0,VALID,104.0,VALID,0.0,VALID,24.316,VALID,97.0,VALID,0.0,
2011-05-25, 00:08:04,VALID,1008.522,VALID,0.0,VALID,104.0,VALID,0.0,VALID,24.357,VALID,97.0,VALID,0.0,
2011-05-25, 00:09:04,VALID,1008.503,VALID,0.0,VALID,104.0,VALID,0.0,VALID,24.335,VALID,97.0,VALID,0.0,
2011-05-25, 00:10:04,VALID,1008.486,VALID,0.0,VALID,104.0,VALID,0.0,VALID,24.335,VALID,97.0,VALID,0.0,
2011-05-25, 00:11:04,VALID,1008.458,VALID,0.0,VALID,104.0,VALID,0.0,VALID,24.337,VALID,97.0,VALID,0.0,
2011-05-25, 00:12:04,VALID,1008.462,VALID,0.0,VALID,104.0,VALID,0.0,VALID,24.337,VALID,97.0,VALID,0.0,
2011-05-25, 00:13:04,VALID,1008.434,VALID,0.0,VALID,104.0,VALID,0.0,VALID,24.337,VALID,97.0,VALID,0.0,
2011-05-25, 00:14:04,VALID,1008.434,VALID,0.0,VALID,104.0,VALID,0.0,VALID,24.357,VALID,97.0,VALID,0.0,
2011-05-25, 00:15:04,VALID,1008.443,VALID,0.0,VALID,104.0,VALID,0.0,VALID,24.337,VALID,97.0,VALID,0.0,
2011-05-25, 00:16:04,VALID,1008.444,VALID,0.0,VALID,104.0,VALID,0.106,VALID,24.296,VALID,97.0,VALID,0.0,
2011-05-25, 00:17:04,VALID,1008.459,VALID,0.0,VALID,104.0,VALID,0.0,VALID,24.318,VALID,97.0,VALID,0.0,
2011-05-25, 00:18:04,VALID,1008.435,VALID,0.0,VALID,104.0,VALID,0.0,VALID,24.337,VALID,97.0,VALID,0.0,
2011-05-25, 00:19:04,VALID,1008.457,VALID,0.0,VALID,104.0,VALID,0.0,VALID,24.318,VALID,97.0,VALID,0.0,
2011-05-25, 00:20:04,VALID,1008.471,VALID,0.0,VALID,104.0,VALID,0.0,VALID,24.298,VALID,97.0,VALID,0.0,
2011-05-25, 00:21:04,VALID,1008.472,VALID,0.0,VALID,104.0,VALID,0.106,VALID,24.296,VALID,97.0,VALID,0.0,
2011-05-25, 00:22:04,VALID,1008.507,VALID,0.0,VALID,104.0,VALID,0.106,VALID,24.277,VALID,97.0,VALID,0.0,
2011-05-25, 00:23:04,VALID,1008.478,VALID,0.0,VALID,104.0,VALID,0.0,VALID,24.259,VALID,97.0,VALID,0.0,
2011-05-25, 00:24:04,VALID,1008.486,VALID,0.0,VALID,104.0,VALID,0.0,VALID,24.218,VALID,97.0,VALID,0.0,
2011-05-25, 00:25:04,VALID,1008.496,VALID,0.0,VALID,104.0,VALID,0.106,VALID,24.24,VALID,97.0,VALID,0.0,
2011-05-25, 00:26:04,VALID,1008.497,VALID,0.0,VALID,104.0,VALID,0.106,VALID,24.24,VALID,97.0,VALID,0.0,
2011-05-25, 00:27:04,VALID,1008.489,VALID,0.0,VALID,104.0,VALID,0.106,VALID,24.238,VALID,97.0,VALID,0.0,
2011-05-25, 00:28:04,VALID,1008.475,VALID,0.0,VALID,104.0,VALID,0.0,VALID,24.257,VALID,97.0,VALID,0.0,
2011-05-25, 00:29:04,VALID,1008.462,VALID,0.0,VALID,104.0,VALID,0.106,VALID,24.296,VALID,97.0,VALID,0.0,
2011-05-25, 00:30:04,VALID,1008.468,VALID,0.0,VALID,104.0,VALID,0.106,VALID,24.316,VALID,97.0,VALID,0.0,
2011-05-25, 00:31:04,VALID,1008.436,VALID,0.0,VALID,104.0,VALID,0.106,VALID,24.316,VALID,97.0,VALID,0.0,
2011-05-25, 00:32:04,VALID,1008.421,VALID,0.0,VALID,104.0,VALID,0.0,VALID,24.318,VALID,97.0,VALID,0.0,
2011-05-25, 00:33:04,VALID,1008.424,VALID,0.0,VALID,104.0,VALID,0.0,VALID,24.298,VALID,97.0,VALID,0.0,
2011-05-25, 00:34:04,VALID,1008.372,VALID,0.0,VALID,104.0,VALID,0.0,VALID,24.296,VALID,97.0,VALID,0.0,
2011-05-25, 00:35:04,VALID,1008.373,VALID,0.0,VALID,104.0,VALID,0.106,VALID,24.337,VALID,97.0,VALID,0.0,
2011-05-25, 00:36:04,VALID,1008.385,VALID,0.0,VALID,104.0,VALID,0.0,VALID,24.296,VALID,97.0,VALID,0.0,
2011-05-25, 00:37:04,VALID,1008.39,VALID,0.0,VALID,104.0,VALID,0.0,VALID,24.296,VALID,97.0,VALID,0.0,
2011-05-25, 00:38:04,VALID,1008.383,VALID,0.0,VALID,104.0,VALID,0.0,VALID,24.318,VALID,97.0,VALID,0.0,
2011-05-25, 00:39:04,VALID,1008.379,VALID,0.0,VALID,104.0,VALID,0.0,VALID,24.296,VALID,97.0,VALID,0.0,
2011-05-25, 00:40:04,VALID,1008.371,VALID,0.0,VALID,104.0,VALID,0.0,VALID,24.316,VALID,97.0,VALID,0.0,
2011-05-25, 00:41:04,VALID,1008.36,VALID,0.0,VALID,104.0,VALID,0.0,VALID,24.316,VALID,97.0,VALID,0.0,
2011-05-25, 00:42:04,VALID,1008.35,VALID,0.0,VALID,104.0,VALID,0.0,VALID,24.337,VALID,97.0,VALID,0.0,
2011-05-25, 00:43:04,VALID,1008.346,VALID,0.0,VALID,104.0,VALID,0.106,VALID,24.316,VALID,97.0,VALID,0.0,
2011-05-25, 00:44:04,VALID,1008.331,VALID,0.0,VALID,104.0,VALID,0.0,VALID,24.357,VALID,97.0,VALID,0.0,
2011-05-25, 00:45:04,VALID,1008.302,VALID,0.0,VALID,104.0,VALID,0.0,VALID,24.357,VALID,97.0,VALID,0.0,
2011-05-25, 00:46:04,VALID,1008.309,VALID,0.0,VALID,104.0,VALID,0.0,VALID,24.357,VALID,97.0,VALID,0.0,
2011-05-25, 00:47:04,VALID,1008.312,VALID,0.0,VALID,104.0,VALID,0.0,VALID,24.357,VALID,97.0,VALID,0.0,
2011-05-25, 00:48:04,VALID,1008.305,VALID,0.0,VALID,104.0,VALID,0.0,VALID,24.357,VALID,97.0,VALID,0.0,
2011-05-25, 00:49:04,VALID,1008.313,VALID,0.0,VALID,104.0,VALID,0.0,VALID,24.335,VALID,97.0,VALID,0.0,
2011-05-25, 00:50:04,VALID,1008.283,VALID,0.0,VALID,104.0,VALID,0.0,VALID,24.316,VALID,97.0,VALID,0.0,
2011-05-25, 00:51:04,VALID,1008.283,VALID,0.0,VALID,104.0,VALID,0.0,VALID,24.337,VALID,97.0,VALID,0.0,
2011-05-25, 00:52:04,VALID,1008.281,VALID,0.0,VALID,104.0,VALID,0.0,VALID,24.316,VALID,97.0,VALID,0.0,
2011-05-25, 00:53:04,VALID,1008.3,VALID,0.0,VALID,104.0,VALID,0.0,VALID,24.337,VALID,97.0,VALID,0.0,
2011-05-25, 00:54:04,VALID,1008.28,VALID,0.0,VALID,104.0,VALID,0.0,VALID,24.316,VALID,97.0,VALID,0.0,
2011-05-25, 00:55:04,VALID,1008.241,VALID,0.0,VALID,104.0,VALID,0.0,VALID,24.357,VALID,97.0,VALID,0.0,
2011-05-25, 00:56:04,VALID,1008.245,VALID,0.0,VALID,104.0,VALID,0.0,VALID,24.376,VALID,97.0,VALID,0.0,
2011-05-25, 00:57:04,VALID,1008.245,VALID,0.0,VALID,104.0,VALID,0.0,VALID,24.357,VALID,97.0,VALID,0.0,
2011-05-25, 00:58:04,VALID,1008.23,VALID,0.0,VALID,104.0,VALID,0.0,VALID,24.376,VALID,97.0,VALID,0.0,
2011-05-25, 00:59:04,VALID,1008.236,VALID,0.0,VALID,104.0,VALID,0.0,VALID,24.376,VALID,97.0,VALID,0.0,
2011-05-25, 01:00:04,VALID,1008.27,VALID,0.0,VALID,104.0,VALID,0.0,VALID,24.376,VALID,97.0,VALID,0.0,
2011-05-25, 01:01:04,VALID,1008.252,VALID,0.0,VALID,104.0,VALID,0.0,VALID,24.415,VALID,97.0,VALID,0.0,
2011-05-25, 01:02:04,VALID,1008.284,VALID,0.0,VALID,104.0,VALID,0.0,VALID,24.413,VALID,97.0,VALID,0.0,
2011-05-25, 01:03:04,VALID,1008.264,VALID,0.0,VALID,104.0,VALID,0.0,VALID,24.474,VALID,97.0,VALID,0.0,
2011-05-25, 01:04:04,VALID,1008.298,VALID,0.0,VALID,104.0,VALID,0.0,VALID,24.413,VALID,97.0,VALID,0.0,
2011-05-25, 01:05:04,VALID,1008.314,VALID,0.0,VALID,104.0,VALID,0.0,VALID,24.433,VALID,97.0,VALID,0.0,
2011-05-25, 01:06:04,VALID,1008.275,VALID,0.0,VALID,104.0,VALID,0.0,VALID,24.454,VALID,97.0,VALID,0.0,
2011-05-25, 01:07:04,VALID,1008.251,VALID,0.0,VALID,104.0,VALID,0.106,VALID,24.452,VALID,97.0,VALID,0.0,
2011-05-25, 01:08:04,VALID,1008.232,VALID,0.0,VALID,104.0,VALID,0.0,VALID,24.472,VALID,97.0,VALID,0.0,
2011-05-25, 01:09:04,VALID,1008.195,VALID,0.0,VALID,104.0,VALID,0.0,VALID,24.472,VALID,97.0,VALID,0.0,
2011-05-25, 01:10:04,VALID,1008.161,VALID,0.0,VALID,104.0,VALID,0.0,VALID,24.511,VALID,96.0,VALID,0.0,
2011-05-25, 01:11:04,VALID,1008.162,VALID,0.0,VALID,104.0,VALID,0.106,VALID,24.551,VALID,76.0,VALID,0.0,
2011-05-25, 01:12:04,VALID,1008.124,VALID,0.0,VALID,104.0,VALID,0.106,VALID,24.532,VALID,76.0,VALID,0.0,
2011-05-25, 01:13:04,VALID,1008.136,VALID,0.0,VALID,104.0,VALID,0.0,VALID,24.532,VALID,76.0,VALID,0.0,
2011-05-25, 01:14:04,VALID,1008.091,VALID,0.0,VALID,104.0,VALID,0.0,VALID,24.512,VALID,76.0,VALID,0.0,
2011-05-25, 01:15:04,VALID,1008.087,VALID,0.0,VALID,104.0,VALID,0.0,VALID,24.512,VALID,76.0,VALID,0.0,
2011-05-25, 01:16:04,VALID,1008.088,VALID,0.0,VALID,104.0,VALID,0.0,VALID,24.512,VALID,76.0,VALID,0.0,
2011-05-25, 01:17:04,VALID,1008.079,VALID,0.0,VALID,104.0,VALID,0.0,VALID,24.512,VALID,76.0,VALID,0.0,
2011-05-25, 01:18:04,VALID,1008.117,VALID,0.0,VALID,104.0,VALID,0.0,VALID,24.472,VALID,76.0,VALID,0.0,
2011-05-25, 01:19:04,VALID,1008.096,VALID,0.0,VALID,104.0,VALID,0.0,VALID,24.472,VALID,76.0,VALID,0.0,
2011-05-25, 01:20:04,VALID,1008.097,VALID,0.0,VALID,104.0,VALID,0.0,VALID,24.493,VALID,76.0,VALID,0.0,
2011-05-25, 01:21:04,VALID,1008.088,VALID,0.0,VALID,104.0,VALID,0.0,VALID,24.472,VALID,76.0,VALID,0.0,
2011-05-25, 01:22:04,VALID,1008.097,VALID,0.0,VALID,104.0,VALID,0.0,VALID,24.493,VALID,76.0,VALID,0.0,
2011-05-25, 01:23:04,VALID,1008.114,VALID,0.0,VALID,103.992,VALID,0.0,VALID,24.474,VALID,76.0,VALID,0.0,
2011-05-25, 01:24:04,VALID,1008.12,VALID,0.0,VALID,104.0,VALID,0.0,VALID,24.452,VALID,76.0,VALID,0.0,
2011-05-25, 01:25:04,VALID,1008.151,VALID,0.0,VALID,104.0,VALID,0.0,VALID,24.474,VALID,76.0,VALID,0.0,
2011-05-25, 01:26:04,VALID,1008.142,VALID,0.0,VALID,104.0,VALID,0.0,VALID,24.474,VALID,76.0,VALID,0.0,
2011-05-25, 01:27:04,VALID,1008.116,VALID,0.0,VALID,104.0,VALID,0.0,VALID,24.452,VALID,76.0,VALID,0.0,
2011-05-25, 01:28:04,VALID,1008.127,VALID,0.0,VALID,104.0,VALID,0.0,VALID,24.433,VALID,76.0,VALID,0.0,
2011-05-25, 01:29:04,VALID,1008.131,VALID,0.0,VALID,104.0,VALID,0.0,VALID,24.413,VALID,76.0,VALID,0.0,
2011-05-25, 01:30:04,VALID,1008.103,VALID,0.0,VALID,104.0,VALID,0.0,VALID,24.413,VALID,76.0,VALID,0.0,
2011-05-25, 01:31:04,VALID,1008.104,VALID,0.0,VALID,104.0,VALID,0.0,VALID,24.435,VALID,76.0,VALID,0.0,
2011-05-25, 01:32:04,VALID,1008.089,VALID,0.0,VALID,104.0,VALID,0.0,VALID,24.394,VALID,76.0,VALID,0.0,
2011-05-25, 01:33:04,VALID,1008.058,VALID,0.0,VALID,104.0,VALID,0.0,VALID,24.415,VALID,76.0,VALID,0.0,
2011-05-25, 01:34:04,VALID,1008.07,VALID,0.0,VALID,104.0,VALID,0.0,VALID,24.396,VALID,76.0,VALID,0.0,
2011-05-25, 01:35:04,VALID,1008.069,VALID,0.0,VALID,104.0,VALID,0.0,VALID,24.335,VALID,76.0,VALID,0.0,
2011-05-25, 01:36:04,VALID,1008.079,VALID,0.0,VALID,104.0,VALID,0.0,VALID,24.337,VALID,76.0,VALID,0.0,
2011-05-25, 01:37:04,VALID,1008.08,VALID,0.0,VALID,104.0,VALID,0.0,VALID,24.316,VALID,76.0,VALID,0.0,
2011-05-25, 01:38:04,VALID,1008.053,VALID,0.0,VALID,104.0,VALID,0.0,VALID,24.298,VALID,76.0,VALID,0.0,
2011-05-25, 01:39:04,VALID,1008.048,VALID,0.0,VALID,104.0,VALID,0.106,VALID,24.277,VALID,76.0,VALID,0.0,
2011-05-25, 01:40:04,VALID,1008.038,VALID,0.0,VALID,104.0,VALID,0.0,VALID,24.279,VALID,76.0,VALID,0.0,
2011-05-25, 01:41:04,VALID,1007.997,VALID,0.0,VALID,104.0,VALID,0.0,VALID,24.279,VALID,76.0,VALID,0.0,
2011-05-25, 01:42:04,VALID,1007.956,VALID,0.0,VALID,104.0,VALID,0.0,VALID,24.298,VALID,76.0,VALID,0.0,
2011-05-25, 01:43:04,VALID,1007.949,VALID,0.0,VALID,104.0,VALID,0.0,VALID,24.279,VALID,76.0,VALID,0.0,
2011-05-25, 01:44:04,VALID,1007.917,VALID,0.0,VALID,104.0,VALID,0.0,VALID,24.279,VALID,76.0,VALID,0.0,
2011-05-25, 01:45:04,VALID,1007.894,VALID,0.0,VALID,104.0,VALID,0.0,VALID,24.259,VALID,76.0,VALID,0.0,
2011-05-25, 01:46:04,VALID,1007.892,VALID,0.0,VALID,104.0,VALID,0.0,VALID,24.238,VALID,76.0,VALID,0.0,
2011-05-25, 01:47:04,VALID,1007.817,VALID,0.0,VALID,104.0,VALID,0.0,VALID,24.199,VALID,76.0,VALID,0.0,
2011-05-25, 01:48:04,VALID,1007.814,VALID,0.0,VALID,104.0,VALID,0.0,VALID,24.22,VALID,76.0,VALID,0.0,
2011-05-25, 01:49:04,VALID,1007.8,VALID,0.0,VALID,104.0,VALID,0.0,VALID,24.199,VALID,76.0,VALID,0.0,
2011-05-25, 01:50:04,VALID,1007.789,VALID,0.0,VALID,104.0,VALID,0.0,VALID,24.199,VALID,76.0,VALID,0.0,
2011-05-25, 01:51:04,VALID,1007.728,VALID,0.0,VALID,104.0,VALID,0.0,VALID,24.179,VALID,76.0,VALID,0.0,
2011-05-25, 01:52:04,VALID,1007.733,VALID,0.0,VALID,104.0,VALID,0.0,VALID,24.181,VALID,76.0,VALID,0.0,
2011-05-25, 01:53:04,VALID,1007.725,VALID,0.0,VALID,104.0,VALID,0.0,VALID,24.162,VALID,76.0,VALID,0.0,
2011-05-25, 01:54:04,VALID,1007.727,VALID,0.0,VALID,104.0,VALID,0.0,VALID,24.121,VALID,76.0,VALID,0.0,
2011-05-25, 01:55:04,VALID,1007.726,VALID,0.0,VALID,104.0,VALID,0.0,VALID,24.101,VALID,76.0,VALID,0.0,
2011-05-25, 01:56:04,VALID,1007.721,VALID,0.0,VALID,104.0,VALID,0.0,VALID,24.103,VALID,76.0,VALID,0.0,
2011-05-25, 01:57:04,VALID,1007.738,VALID,0.0,VALID,104.0,VALID,0.0,VALID,24.103,VALID,76.0,VALID,0.0,
2011-05-25, 01:58:04,VALID,1007.726,VALID,0.0,VALID,104.0,VALID,0.0,VALID,24.084,VALID,76.0,VALID,0.0,
2011-05-25, 01:59:04,VALID,1007.692,VALID,0.0,VALID,104.0,VALID,0.0,VALID,24.064,VALID,76.0,VALID,0.0,
2011-05-25, 02:00:04,VALID,1007.71,VALID,0.0,VALID,104.0,VALID,0.0,VALID,24.064,VALID,76.0,VALID,0.0,
2011-05-25, 02:01:04,VALID,1007.701,VALID,0.0,VALID,104.0,VALID,0.0,VALID,24.045,VALID,76.0,VALID,0.0,
2011-05-25, 02:02:04,VALID,1007.685,VALID,0.0,VALID,104.0,VALID,0.106,VALID,24.023,VALID,76.0,VALID,0.0,
2011-05-25, 02:03:04,VALID,1007.665,VALID,0.0,VALID,104.0,VALID,0.0,VALID,24.045,VALID,76.0,VALID,0.0,
2011-05-25, 02:04:04,VALID,1007.681,VALID,0.0,VALID,104.0,VALID,0.0,VALID,24.023,VALID,76.0,VALID,0.0,
2011-05-25, 02:05:04,VALID,1007.666,VALID,0.0,VALID,104.0,VALID,0.0,VALID,24.045,VALID,76.0,VALID,0.0,
2011-05-25, 02:06:04,VALID,1007.646,VALID,0.0,VALID,104.0,VALID,0.0,VALID,24.045,VALID,76.0,VALID,0.0,
2011-05-25, 02:07:04,VALID,1007.625,VALID,0.0,VALID,104.0,VALID,0.0,VALID,24.045,VALID,76.0,VALID,0.0,
2011-05-25, 02:08:04,VALID,1007.604,VALID,0.0,VALID,104.0,VALID,0.0,VALID,24.064,VALID,76.0,VALID,0.0,
2011-05-25, 02:09:04,VALID,1007.615,VALID,0.0,VALID,104.0,VALID,0.0,VALID,24.064,VALID,76.0,VALID,0.0,
2011-05-25, 02:10:04,VALID,1007.62,VALID,0.0,VALID,104.0,VALID,0.0,VALID,24.084,VALID,76.0,VALID,0.0,
2011-05-25, 02:11:04,VALID,1007.58,VALID,0.0,VALID,104.0,VALID,0.0,VALID,24.062,VALID,76.0,VALID,0.0,
2011-05-25, 02:12:04,VALID,1007.567,VALID,0.0,VALID,104.0,VALID,0.0,VALID,24.084,VALID,76.0,VALID,0.0,
2011-05-25, 02:13:04,VALID,1007.54,VALID,0.0,VALID,104.0,VALID,0.0,VALID,24.103,VALID,76.0,VALID,0.0,
2011-05-25, 02:14:04,VALID,1007.496,VALID,0.0,VALID,104.0,VALID,0.0,VALID,24.103,VALID,76.0,VALID,0.0,
2011-05-25, 02:15:04,VALID,1007.474,VALID,0.0,VALID,104.0,VALID,0.0,VALID,24.103,VALID,76.0,VALID,0.0,
2011-05-25, 02:16:04,VALID,1007.454,VALID,0.0,VALID,104.0,VALID,0.0,VALID,24.084,VALID,76.0,VALID,0.0,
2011-05-25, 02:17:04,VALID,1007.42,VALID,0.0,VALID,104.0,VALID,0.0,VALID,24.084,VALID,76.0,VALID,0.0,
2011-05-25, 02:18:04,VALID,1007.444,VALID,0.0,VALID,104.0,VALID,0.0,VALID,24.043,VALID,76.0,VALID,0.0,
2011-05-25, 02:19:04,VALID,1007.439,VALID,0.0,VALID,104.0,VALID,0.0,VALID,24.045,VALID,76.0,VALID,0.0,
2011-05-25, 02:20:04,VALID,1007.441,VALID,0.0,VALID,104.0,VALID,0.0,VALID,24.045,VALID,76.0,VALID,0.0,
2011-05-25, 02:21:04,VALID,1007.423,VALID,0.0,VALID,104.0,VALID,0.0,VALID,24.045,VALID,76.0,VALID,0.0,
2011-05-25, 02:22:04,VALID,1007.411,VALID,0.0,VALID,104.0,VALID,0.0,VALID,24.045,VALID,76.0,VALID,0.0,
2011-05-25, 02:23:04,VALID,1007.379,VALID,0.0,VALID,104.0,VALID,0.0,VALID,24.045,VALID,76.0,VALID,0.0,
2011-05-25, 02:24:04,VALID,1007.32,VALID,0.0,VALID,104.0,VALID,0.0,VALID,24.045,VALID,76.0,VALID,0.0,
2011-05-25, 02:25:04,VALID,1007.321,VALID,0.0,VALID,104.0,VALID,0.0,VALID,24.025,VALID,76.0,VALID,0.0,
2011-05-25, 02:26:04,VALID,1007.279,VALID,0.0,VALID,104.0,VALID,0.0,VALID,24.006,VALID,76.0,VALID,0.0,
2011-05-25, 02:27:04,VALID,1007.266,VALID,0.0,VALID,104.0,VALID,0.0,VALID,24.006,VALID,76.0,VALID,0.0,
2011-05-25, 02:28:04,VALID,1007.225,VALID,0.0,VALID,104.0,VALID,0.0,VALID,24.006,VALID,76.0,VALID,0.0,
2011-05-25, 02:29:04,VALID,1007.261,VALID,0.0,VALID,104.0,VALID,0.0,VALID,23.965,VALID,76.0,VALID,0.0,
2011-05-25, 02:30:04,VALID,1007.24,VALID,0.0,VALID,104.0,VALID,0.106,VALID,23.965,VALID,76.0,VALID,0.0,
2011-05-25, 02:31:04,VALID,1007.266,VALID,0.0,VALID,104.0,VALID,0.0,VALID,23.946,VALID,76.0,VALID,0.0,
2011-05-25, 02:32:04,VALID,1007.285,VALID,0.0,VALID,104.0,VALID,0.0,VALID,23.946,VALID,76.0,VALID,0.0,
2011-05-25, 02:33:04,VALID,1007.269,VALID,0.0,VALID,104.0,VALID,0.0,VALID,23.967,VALID,76.0,VALID,0.0,
2011-05-25, 02:34:04,VALID,1007.297,VALID,0.0,VALID,104.0,VALID,0.0,VALID,23.947,VALID,76.0,VALID,0.0,
2011-05-25, 02:35:04,VALID,1007.311,VALID,0.0,VALID,104.0,VALID,0.0,VALID,23.967,VALID,76.0,VALID,0.0,
2011-05-25, 02:36:04,VALID,1007.309,VALID,0.0,VALID,104.0,VALID,0.106,VALID,23.947,VALID,76.0,VALID,0.0,
2011-05-25, 02:37:04,VALID,1007.286,VALID,0.0,VALID,104.0,VALID,0.0,VALID,23.928,VALID,76.0,VALID,0.0,
2011-05-25, 02:38:04,VALID,1007.296,VALID,0.0,VALID,104.0,VALID,0.0,VALID,23.928,VALID,76.0,VALID,0.0,
2011-05-25, 02:39:04,VALID,1007.268,VALID,0.0,VALID,104.0,VALID,0.0,VALID,23.928,VALID,76.0,VALID,0.0,
2011-05-25, 02:40:04,VALID,1007.274,VALID,0.0,VALID,104.0,VALID,0.0,VALID,23.908,VALID,76.0,VALID,0.0,
2011-05-25, 02:41:04,VALID,1007.276,VALID,0.0,VALID,104.0,VALID,0.0,VALID,23.928,VALID,76.0,VALID,0.0,
2011-05-25, 02:42:04,VALID,1007.271,VALID,0.0,VALID,104.0,VALID,0.0,VALID,23.947,VALID,76.0,VALID,0.0,
2011-05-25, 02:43:04,VALID,1007.275,VALID,0.0,VALID,104.0,VALID,0.0,VALID,23.928,VALID,95.0,VALID,0.0,
2011-05-25, 02:44:04,VALID,1007.282,VALID,0.0,VALID,104.0,VALID,0.0,VALID,23.926,VALID,96.0,VALID,0.0,
2011-05-25, 02:45:04,VALID,1007.273,VALID,0.0,VALID,104.0,VALID,0.0,VALID,23.926,VALID,96.0,VALID,0.0,
2011-05-25, 02:46:04,VALID,1007.273,VALID,0.0,VALID,104.0,VALID,0.0,VALID,23.928,VALID,96.0,VALID,0.0,
2011-05-25, 02:47:04,VALID,1007.287,VALID,0.0,VALID,104.0,VALID,0.0,VALID,23.928,VALID,96.0,VALID,0.0,
2011-05-25, 02:48:04,VALID,1007.302,VALID,0.0,VALID,104.0,VALID,0.0,VALID,23.908,VALID,96.0,VALID,0.0,
2011-05-25, 02:49:04,VALID,1007.295,VALID,0.0,VALID,104.0,VALID,0.0,VALID,23.908,VALID,96.0,VALID,0.0,
2011-05-25, 02:50:04,VALID,1007.276,VALID,0.0,VALID,104.0,VALID,0.0,VALID,23.908,VALID,96.0,VALID,0.0,
2011-05-25, 02:51:04,VALID,1007.315,VALID,0.0,VALID,104.0,VALID,0.0,VALID,23.887,VALID,96.0,VALID,0.0,
2011-05-25, 02:52:04,VALID,1007.299,VALID,0.0,VALID,104.0,VALID,0.0,VALID,23.908,VALID,96.0,VALID,0.0,
2011-05-25, 02:53:04,VALID,1007.289,VALID,0.0,VALID,104.0,VALID,0.0,VALID,23.908,VALID,96.0,VALID,0.0,
2011-05-25, 02:54:04,VALID,1007.293,VALID,0.0,VALID,104.0,VALID,0.0,VALID,23.908,VALID,96.0,VALID,0.0,
2011-05-25, 02:55:04,VALID,1007.28,VALID,0.0,VALID,104.0,VALID,0.0,VALID,23.908,VALID,96.0,VALID,0.0,
2011-05-25, 02:56:04,VALID,1007.281,VALID,0.0,VALID,104.0,VALID,0.0,VALID,23.887,VALID,96.0,VALID,0.0,
2011-05-25, 02:57:04,VALID,1007.253,VALID,0.0,VALID,104.0,VALID,0.0,VALID,23.887,VALID,96.0,VALID,0.0,
2011-05-25, 02:58:04,VALID,1007.228,VALID,0.0,VALID,104.0,VALID,0.0,VALID,23.907,VALID,96.0,VALID,0.0,
2011-05-25, 02:59:04,VALID,1007.211,VALID,0.0,VALID,104.0,VALID,0.106,VALID,23.907,VALID,96.0,VALID,0.0,
2011-05-25, 03:00:04,VALID,1007.207,VALID,0.0,VALID,104.0,VALID,0.106,VALID,23.926,VALID,96.0,VALID,0.0,
2011-05-25, 03:01:04,VALID,1007.153,VALID,0.0,VALID,104.0,VALID,0.0,VALID,23.946,VALID,96.0,VALID,0.0,
2011-05-25, 03:02:04,VALID,1007.14,VALID,0.0,VALID,104.0,VALID,0.0,VALID,23.946,VALID,96.0,VALID,0.0,
2011-05-25, 03:03:04,VALID,1007.133,VALID,0.0,VALID,104.0,VALID,0.0,VALID,23.926,VALID,96.0,VALID,0.0,
2011-05-25, 03:04:04,VALID,1007.102,VALID,0.0,VALID,104.0,VALID,0.0,VALID,23.947,VALID,96.0,VALID,0.0,
2011-05-25, 03:05:04,VALID,1007.072,VALID,0.0,VALID,104.0,VALID,0.106,VALID,23.946,VALID,96.0,VALID,0.0,
2011-05-25, 03:06:04,VALID,1007.067,VALID,0.0,VALID,104.0,VALID,0.0,VALID,23.926,VALID,96.0,VALID,0.0,
2011-05-25, 03:07:04,VALID,1007.081,VALID,0.0,VALID,104.0,VALID,0.0,VALID,23.926,VALID,96.0,VALID,0.0,
2011-05-25, 03:08:04,VALID,1007.037,VALID,0.0,VALID,104.0,VALID,0.0,VALID,23.946,VALID,96.0,VALID,0.0,
2011-05-25, 03:09:04,VALID,1007.032,VALID,0.0,VALID,104.0,VALID,0.0,VALID,23.946,VALID,96.0,VALID,0.0,
2011-05-25, 03:10:04,VALID,1007.043,VALID,0.0,VALID,104.0,VALID,0.0,VALID,23.965,VALID,96.0,VALID,0.0,
2011-05-25, 03:11:04,VALID,1007.044,VALID,0.0,VALID,104.0,VALID,0.0,VALID,23.946,VALID,96.0,VALID,0.0,
2011-05-25, 03:12:04,VALID,1007.05,VALID,0.0,VALID,104.0,VALID,0.0,VALID,23.947,VALID,96.0,VALID,0.0,
2011-05-25, 03:13:04,VALID,1007.043,VALID,0.0,VALID,104.0,VALID,0.0,VALID,23.928,VALID,96.0,VALID,0.0,
2011-05-25, 03:14:04,VALID,1007.031,VALID,0.0,VALID,104.0,VALID,0.0,VALID,23.887,VALID,96.0,VALID,0.0,
2011-05-25, 03:15:04,VALID,1007.026,VALID,0.0,VALID,104.0,VALID,0.0,VALID,23.868,VALID,96.0,VALID,0.0,
2011-05-25, 03:16:04,VALID,1007.02,VALID,0.0,VALID,104.0,VALID,0.106,VALID,23.848,VALID,96.0,VALID,0.0,
2011-05-25, 03:17:04,VALID,1007.031,VALID,0.0,VALID,104.0,VALID,0.0,VALID,23.829,VALID,96.0,VALID,0.0,
2011-05-25, 03:18:04,VALID,1007.005,VALID,0.0,VALID,104.0,VALID,0.106,VALID,23.83,VALID,96.0,VALID,0.0,
2011-05-25, 03:19:04,VALID,1006.993,VALID,0.0,VALID,104.0,VALID,0.0,VALID,23.77,VALID,96.0,VALID,0.0,
2011-05-25, 03:20:04,VALID,1007.014,VALID,0.0,VALID,104.0,VALID,0.0,VALID,23.77,VALID,73.0,VALID,0.231,
2011-05-25, 03:21:04,VALID,1006.952,VALID,0.0,VALID,104.0,VALID,0.106,VALID,23.751,VALID,73.0,VALID,0.0,
2011-05-25, 03:22:04,VALID,1006.984,VALID,0.0,VALID,104.0,VALID,0.0,VALID,23.751,VALID,73.0,VALID,0.0,
2011-05-25, 03:23:04,VALID,1006.985,VALID,0.0,VALID,104.0,VALID,0.0,VALID,23.751,VALID,73.0,VALID,0.0,
2011-05-25, 03:24:04,VALID,1006.97,VALID,0.0,VALID,104.0,VALID,0.0,VALID,23.731,VALID,73.0,VALID,0.0,
2011-05-25, 03:25:04,VALID,1006.962,VALID,0.0,VALID,104.0,VALID,0.0,VALID,23.752,VALID,73.0,VALID,0.0,
2011-05-25, 03:26:04,VALID,1006.959,VALID,0.0,VALID,104.0,VALID,0.0,VALID,23.731,VALID,73.0,VALID,0.0,
2011-05-25, 03:27:04,VALID,1006.962,VALID,0.0,VALID,104.0,VALID,0.0,VALID,23.731,VALID,73.0,VALID,0.0,
2011-05-25, 03:28:04,VALID,1006.972,VALID,0.0,VALID,104.0,VALID,0.0,VALID,23.712,VALID,73.0,VALID,0.0,
2011-05-25, 03:29:04,VALID,1006.952,VALID,0.0,VALID,104.0,VALID,0.0,VALID,23.712,VALID,73.0,VALID,0.0,
2011-05-25, 03:30:04,VALID,1006.914,VALID,0.0,VALID,104.0,VALID,0.106,VALID,23.712,VALID,73.0,VALID,0.0,
2011-05-25, 03:31:04,VALID,1006.957,VALID,0.0,VALID,104.0,VALID,0.0,VALID,23.712,VALID,73.0,VALID,0.0,
2011-05-25, 03:32:04,VALID,1006.934,VALID,0.0,VALID,104.0,VALID,0.106,VALID,23.69,VALID,73.0,VALID,0.0,
2011-05-25, 03:33:04,VALID,1006.939,VALID,0.0,VALID,104.0,VALID,0.0,VALID,23.731,VALID,73.0,VALID,0.0,
2011-05-25, 03:34:04,VALID,1006.943,VALID,0.0,VALID,104.0,VALID,0.0,VALID,23.712,VALID,73.0,VALID,0.0,
2011-05-25, 03:35:04,VALID,1006.881,VALID,0.0,VALID,104.0,VALID,0.0,VALID,23.712,VALID,73.0,VALID,0.0,
2011-05-25, 03:36:04,VALID,1006.885,VALID,0.0,VALID,104.0,VALID,0.106,VALID,23.692,VALID,73.0,VALID,0.0,
2011-05-25, 03:37:04,VALID,1006.9,VALID,0.0,VALID,104.0,VALID,0.106,VALID,23.713,VALID,73.0,VALID,0.0,
2011-05-25, 03:38:04,VALID,1006.888,VALID,0.0,VALID,104.0,VALID,0.0,VALID,23.694,VALID,73.0,VALID,0.0,
2011-05-25, 03:39:04,VALID,1006.911,VALID,0.0,VALID,104.0,VALID,0.0,VALID,23.673,VALID,73.0,VALID,0.0,
2011-05-25, 03:40:04,VALID,1006.936,VALID,0.0,VALID,104.0,VALID,0.0,VALID,23.673,VALID,73.0,VALID,0.0,
2011-05-25, 03:41:04,VALID,1006.955,VALID,0.0,VALID,104.0,VALID,0.0,VALID,23.675,VALID,73.0,VALID,0.0,
2011-05-25, 03:42:04,VALID,1006.985,VALID,0.0,VALID,104.0,VALID,0.0,VALID,23.634,VALID,73.0,VALID,0.0,
2011-05-25, 03:43:04,VALID,1007.021,VALID,0.0,VALID,104.0,VALID,0.0,VALID,23.655,VALID,73.0,VALID,0.0,
2011-05-25, 03:44:04,VALID,1007.055,VALID,0.0,VALID,104.0,VALID,0.0,VALID,23.655,VALID,73.0,VALID,0.0,
2011-05-25, 03:45:04,VALID,1007.037,VALID,0.0,VALID,104.0,VALID,0.0,VALID,23.655,VALID,73.0,VALID,0.0,
2011-05-25, 03:46:04,VALID,1007.016,VALID,0.0,VALID,104.0,VALID,0.0,VALID,23.675,VALID,73.0,VALID,0.0,
2011-05-25, 03:47:04,VALID,1007.007,VALID,0.0,VALID,104.0,VALID,0.106,VALID,23.673,VALID,73.0,VALID,0.0,